DW5222 Weather Reports


time (UTC)temp
F
wind
direction
speed
knots
gust
knots
rain 1hr
in
rain 24hr
in
rain mn
in
humidity
%
barometer
mb
20210618214332 71 105 0.0 0.0 0.00 0.00 0.00 74 1014.4
20210618213855 71 105 0.0 0.0 0.00 0.00 0.00 74 1014.3
20210618210840 73 105 0.0 0.0 0.00 0.00 0.00 70 1014.6
20210618210349 73 105 0.0 0.0 0.00 0.00 0.00 69 1014.5
20210618202837 75 105 0.0 0.0 0.00 0.00 0.00 64 1014.5
20210618201832 76 105 0.0 0.0 0.00 0.00 0.00 62 1014.5
20210618200340 77 105 0.0 0.0 0.00 0.00 0.00 59 1014.5
20210618193434 80 105 0.0 0.0 0.00 0.00 0.00 56 1014.2
20210618184248 86 105 0.0 0.0 0.00 0.00 0.00 40 1013.4
20210618181334 86 105 0.0 0.0 0.00 0.00 0.00 41 1013.4
20210618175004 86 105 0.0 0.9 0.00 0.00 0.00 36 1013.4
20210618172845 86 105 0.0 0.0 0.00 0.00 0.00 38 1013.6
20210618155851 88 355 0.0 0.0 0.00 0.00 0.00 34 1013.2
20210618151938 88 115 0.0 0.0 0.00 0.00 0.00 34 1013.4
20210618151904 89 15 0.0 0.9 0.00 0.00 0.00 34 1013.3
20210618142329 89 351 0.0 0.9 0.00 0.00 0.00 33 1013.6
20210618140427 88 59 0.0 0.9 0.00 0.00 0.00 35 1013.9
20210618134833 88 26 0.0 0.0 0.00 0.00 0.00 36 1013.8
20210618131324 88 18 0.0 0.0 0.00 0.00 0.00 36 1014.1
20210618123325 87 0 0.0 0.0 0.00 0.00 0.00 35 1014.2
20210618122336 86 232 0.0 0.0 0.00 0.00 0.00 37 1014.2
20210618120410 85 317 0.0 0.0 0.00 0.00 0.00 41 1014.3
20210618120320 85 317 0.0 0.0 0.00 0.00 0.00 41 1014.3
20210618114409 85 122 0.0 0.9 0.00 0.00 0.00 42 1014.3
20210618114332 85 122 0.0 0.9 0.00 0.00 0.00 42 1014.3
20210618112346 85 342 0.0 0.0 0.00 0.00 0.00 46 1014.5
20210618105903 84 24 0.0 0.9 0.00 0.00 0.00 48 1014.6
20210618102324 83 35 0.0 0.0 0.00 0.00 0.00 48 1014.8
20210618102124 83 34 0.0 0.0 0.00 0.00 0.00 50 1014.8
20210618095900 83 17 0.0 0.0 0.00 0.00 0.00 52 1014.7
20210618094329 82 232 0.0 0.9 0.00 0.00 0.00 50 1014.8
20210618091824 81 0 0.0 3.5 0.00 0.00 0.00 54 1014.9
20210618084339 79 237 0.0 0.0 0.00 0.00 0.00 54 1014.8
20210618083843 79 273 0.0 0.0 0.00 0.00 0.00 54 1014.8
20210618082336 78 314 0.0 0.0 0.00 0.00 0.00 55 1014.8
20210618080828 78 238 0.0 0.0 0.00 0.00 0.00 57 1014.9
20210618080331 78 294 0.0 0.9 0.00 0.00 0.00 57 1015.0
20210618072317 75 348 0.0 0.9 0.00 0.00 0.00 60 1014.8
20210618071631 74 347 0.0 0.0 0.00 0.00 0.00 61 1014.6
20210618070636 68 232 0.0 0.0 0.00 0.00 0.00 78 1014.7
20210618062608 67 232 0.0 0.0 0.00 0.00 0.00 78 1014.8
20210618062515 67 232 0.0 0.0 0.00 0.00 0.00 78 1014.8
20210618054838 67 232 0.0 0.0 0.00 0.00 0.00 79 1014.8
20210618051828 64 292 0.0 0.0 0.00 0.00 0.00 82 1014.6
20210618051544 63 292 0.0 0.0 0.00 0.00 0.00 81 1014.6
20210618050336 62 292 0.0 0.0 0.00 0.00 0.00 82 1014.5
20210617223928 65 63 0.0 0.0 0.00 0.00 0.00 78 1014.2
20210617223332 65 63 0.0 0.0 0.00 0.00 0.00 78 1014.2
20210617221922 66 63 0.0 0.0 0.00 0.00 0.00 77 1014.2